Regional Weather Roundup
Issued by NWS Columbia, SC

Home | Current Version | Previous Version | Text Only | Print | Product List | Glossary On
Versions: 1 2 3 4 5 6 7 8 9 10 11 12 13 14 15 16 17 18 19 20 21 22 23 24 25 26 27
000
ASUS42 KCAE 271810
RWRCAE
REGIONAL WEATHER ROUNDUP
NATIONAL WEATHER SERVICE COLUMBIA SC
200 PM EDT SAT MAY 27 2017

NOTE: "FAIR" INDICATES FEW OR NO CLOUDS BELOW 12,000 FEET WITH NO
SIGNIFICANT WEATHER AND/OR OBSTRUCTIONS TO VISIBILITY.

NOT ALL STATIONS ARE QUALITY CONTROLLED BY THE NATIONAL
WEATHER SERVICE. USE DATA WITH CAUTION...ESPECIALLY
DEWPOINT OBSERVATIONS.

SCZ001>056-GAZ040-063>065-077-271900-
...UPSTATE SOUTH CAROLINA...

CITY           SKY/WX    TMP DP  RH WIND       PRES   REMARKS
ANDERSON       MOSUNNY   85  63  47 W13       30.01F
6HR MIN TEMP:  66; 6HR MAX TEMP:  86;

SPARTANBURG    MOSUNNY   86  61  42 W9        29.98F
CLEMSON        MOSUNNY   87  66  49 W9        30.00F
6HR MIN TEMP:  69; 6HR MAX TEMP:  87;

GREENVILLE     MOSUNNY   87  64  46 W8G22     30.01F
6HR MIN TEMP:  70; 6HR MAX TEMP:  87;

GREENWOOD      MOSUNNY   84  63  49 W13       30.02F
6HR MIN TEMP:  70; 6HR MAX TEMP:  85;

GREER          MOSUNNY   85  65  51 W12       29.99F
6HR MIN TEMP:  68; 6HR MAX TEMP:  85;

ROCK HILL      MOSUNNY   85  65  51 SW10      29.97F
6HR MIN TEMP:  68; 6HR MAX TEMP:  86;

CHESTER        MOCLDY    86  61  42 SW8       29.98F
LAURENS        PTCLDY    84  64  51 W10G17    30.00S


...CENTRAL SOUTH CAROLINA...

CITY           SKY/WX    TMP DP  RH WIND       PRES   REMARKS
COLUMBIA APT   PTSUNNY   90  64  42 W16       29.97S
6HR MIN TEMP:  74; 6HR MAX TEMP:  91;

COLUMBIA OWENS MOSUNNY   90  61  37 W13G21    29.97F
6HR MIN TEMP:  73; 6HR MAX TEMP:  90;

MCENTIRE ANGB  MOSUNNY   87  64  45 W12G20    29.97F
6HR MIN TEMP:  70; 6HR MAX TEMP:  89;

ORANGEBURG     SUNNY     89  63  41 W14G22    29.98F
6HR MIN TEMP:  69; 6HR MAX TEMP:  89;

SUMTER SHAW    MOSUNNY   89  63  41 W18G25    29.94F
6HR MIN TEMP:  72; 6HR MAX TEMP:  89;

NEWBERRY       CLOUDY    86  66  51 W13       30.02F
AIKEN          FAIR      88  61  40 W15G23    30.04F
BARNWELL       FAIR      91  63  38 W12       30.00S
MANNING        FAIR      88  68  51 W21G33    29.97F
CAMDEN         FAIR      88  64  45 W17       29.97S
LANCASTER      CLOUDY    84  64  51 SW13G21   29.97S
WINNSBORO      PTCLDY    86  64  48 SW10G17   29.98F


...EASTERN AND COASTAL SOUTH CAROLINA...

CITY           SKY/WX    TMP DP  RH WIND       PRES   REMARKS
MYRTLE BEACH   SUNNY     84  70  61 VRB6      29.97F
N MYRTLE BCH   SUNNY     83  70  64 S14       29.95F
6HR MIN TEMP:  72; 6HR MAX TEMP:  84;

CONWAY         FAIR      86  68  54 W7        29.95F
MARION         FAIR      86  64  48 W12       29.95F
HARTSVILLE     FAIR      88  63  42 W12G20    29.95F
FLORENCE       MOSUNNY   88  67  49 SW12G22   29.95F
6HR MIN TEMP:  68; 6HR MAX TEMP:  88;

DARLINGTON     MOSUNNY   87  68  52 W13       29.95F
6HR MIN TEMP:  68; 6HR MAX TEMP:  88;

CHARLESTON APT MOSUNNY   89  64  43 W12       29.99F
6HR MIN TEMP:  72; 6HR MAX TEMP:  89;

MOUNT PLEASANT FAIR      88  66  48 SW10G16   29.99F
WALTERBORO     CLEAR     88  63  42 W10G18    30.00F
BEAUFORT       MOSUNNY   90  65  43 W15       30.00F
6HR MIN TEMP:  71; 6HR MAX TEMP:  90;



...EASTERN GEORGIA...

CITY           SKY/WX    TMP DP  RH WIND       PRES   REMARKS
AUGUSTA BUSH F SUNNY     92  61  35 W13G18    29.99F
6HR MIN TEMP:  69; 6HR MAX TEMP:  92;

AUGUSTA DANIEL SUNNY     89  57  33 SW8G18    30.01F
6HR MIN TEMP:  73; 6HR MAX TEMP:  89;

THOMSON        SUNNY     87  57  35 NW12G22   30.07F
6HR MIN TEMP:  68; 6HR MAX TEMP:  88;

WASHINGTON     FAIR      86  68  54 W10       30.03S
CLAXTON        FAIR      88  66  48 SW10G17   30.04F
6HR MIN TEMP:  67; 6HR MAX TEMP:  88;

SYLVANIA       CLEAR     89  66  46 W8        30.03F
6HR MIN TEMP:  69; 6HR MAX TEMP:  89;

STATESBORO     SUNNY     89  63  41 W13G18    30.03F
6HR MIN TEMP:  71; 6HR MAX TEMP:  89;

SAVANNAH       MOSUNNY   92  61  35 W10       30.02F
6HR MIN TEMP:  69; 6HR MAX TEMP:  92;



...SOUTHERN NORTH CAROLINA...

CITY           SKY/WX    TMP DP  RH WIND       PRES   REMARKS
CHARLOTTE      PTSUNNY   86  64  47 W10       29.96F
6HR MIN TEMP:  70; 6HR MAX TEMP:  86;

MONROE         MOSUNNY   86  64  47 W15       29.95F
6HR MIN TEMP:  69; 6HR MAX TEMP:  87;

WADESBORO      PTCLDY    86  63  45 SW6       29.93F
6HR MIN TEMP:  68; 6HR MAX TEMP:  87;

ROCKINGHAM     PTCLDY    87  66  48 W8G16     29.94F
RUTHERFORDTON  CLOUDY    82  64  53 S8G22     29.99S
6HR MIN TEMP:  63; 6HR MAX TEMP:  83;

ASHEVILLE      CLOUDY    79  58  48 S6        30.03F
6HR MIN TEMP:  57; 6HR MAX TEMP:  80;


$$




USA.gov is the U.S. government's official web portal to all federal, state and local government web resources and services.